Weather Service Report


633 
ASUS46 KPQR 230410
RWROR 

OREGON REGIONAL WEATHER ROUNDUP
NATIONAL WEATHER SERVICE PORTLAND OR
800 PM PST MON DEC 22 2014

NOTE: "FAIR" INDICATES FEW OR NO CLOUDS BELOW 12,000 FEET WITH
NO SIGNIFICANT WEATHER AND/OR OBSTRUCTIONS TO VISIBILITY.

ORZ001>013-230500-
NORTHWEST OREGON

  
CITY           SKY/WX    TMP DP  RH WIND       PRES   REMARKS
ASTORIA        CLOUDY    48  45  89 MISG      30.30S                  
NEWPORT        CLOUDY    52  50  93 E7        30.32F                  
PORTLAND       PTCLDY    45  44  97 E8        30.35F                  
VANCOUVER WA   CLEAR     42  41  96 NE3       30.34F                  
SCAPPOOSE      FOG       43  42  97 NW3       30.35R VSB 1/2          
HILLSBORO      PTCLDY    43  43 100 CALM      30.33F                  
AURORA         CLEAR     44  44 100 CALM      30.34S FOG              
MCMINNVILLE    CLOUDY    47  45  93 NW5       30.34F                  
SALEM          MOCLDY    47  45  93 CALM      30.32F FOG              
CORVALLIS      CLOUDY    50  48  93 W3        30.33F                  
EUGENE         CLOUDY    51  49  92 CALM      30.33S                  
$$

ORZ021-028-230500-
SOUTHWEST OREGON

  
CITY           SKY/WX    TMP DP  RH WIND       PRES   REMARKS
NORTH BEND     CLOUDY    55  55 100 SE3       30.33S                  
BROOKINGS      FOG       56  56 100 CALM      30.33F VSB 1/4          
ROSEBURG       CLOUDY    56  53  90 CALM      30.33R                  
SEXTON SUMMIT  FOG       46  46 100 SW6       30.33S VSB 1/4          
MEDFORD        CLOUDY    56  52  86 N5        30.33R                  
$$

ORZ014>016-041-230500-
COLUMBIA GORGE

  
CITY           SKY/WX    TMP DP  RH WIND       PRES   REMARKS
TROUTDALE      MOCLDY    46  43  89 E3        30.34S                  
THE DALLES     CLOUDY    49  39  68 NW3       30.35R                  
$$

ORZ029>031-041-044-049-050-061>064-502-503-505>511-230500-
EASTERN OREGON

  
CITY           SKY/WX    TMP DP  RH WIND       PRES   REMARKS
REDMOND        MOCLDY    36  33  89 S6        30.32R WCI  31          
BEND           PTCLDY    36  34  93 CALM      30.34R                  
PRINEVILLE     CLOUDY    37  36  93 CALM      30.34R                  
KLAMATH FALLS  CLEAR     41  38  89 CALM      30.33R                  
LAKEVIEW       CLEAR     36  32  87 N8        30.34S WCI  29          
HERMISTON      MOCLDY    43  36  76 SE5       30.35R                  
PENDLETON      MOCLDY    40  34  79 S7        30.34R                  
JOHN DAY       MOCLDY    37  26  64 E6        30.35R WCI  32          
MEACHAM        CLOUDY    31  30  96 CALM      30.32R                  
LA GRANDE      MOCLDY    36  25  64 S3        30.33S                  
BAKER CITY     PTCLDY    32  27  81 CALM      30.34                   
BURNS          MOCLDY    30  22  72 CALM      30.33R                  
ROME             N/A     37  21  52 N8        30.31S WCI  31          
ONTARIO        CLEAR     36  27  69 NW8       30.38R WCI  30          
$$

Return to Home page


Western Regional Climate Center, wrcc@dri.edu